Theta_e
355 347 352 355 351 356 357 347 355 358 356 355 352 350 349 349 349 348 346 359 358 359 358 360 361 361 361 361 361 362 364 365 366 365 362 362 363 362 361 360 359 358 359
351 360 355 358 357 362 349 362 363 362 359 352 350 352 351 349 352 352 348 352 359 359 362 362 362 363 362 363 363 363 364 365 364 362 363 363 363 359 360 356 357 356 358
356 370 352 348 358 347 359 358 362 362 354 349 351 349 352 352 350 353 353 349 352 361 362 363 364 364 364 361 361 363 362 363 362 361 361 363 365 358 356 358 358 356 357
366 368 352 349 355 367 350 355 357 350 352 348 349 350 351 350 351 351 351 353 354 351 360 363 364 364 365 362 361 361 364 364 360 361 363 361 362 360 359 361 358 358 358
362 369 349 347 363 367 349 347 349 350 351 350 346 350 347 348 350 345 351 355 354 353 357 361 364 364 364 361 360 361 361 361 360 360 363 362 361 360 359 359 359 359 359
364 369 359 354 370 361 352 341 346 361 359 355 349 345 347 346 345 345 349 353 352 351 357 358 359 360 362 364 361 359 357 355 357 359 364 358 358 359 359 360 358 358 359
365 366 364 367 368 355 355 358 360 358 355 361 355 342 341 339 342 343 348 351 355 352 353 359 356 358 358 363 358 358 354 354 355 361 361 359 360 359 359 360 359 356 357
366 362 367 356 367 357 364 363 365 359 357 359 349 351 338 331 337 343 344 349 351 351 350 360 359 359 361 357 355 359 357 355 357 359 360 360 359 359 360 359 360 360 358
364 364 367 367 366 366 361 366 363 361 354 350 359 350 341 335 337 343 344 346 340 348 352 355 351 361 361 346 346 361 359 358 357 361 360 358 359 359 360 359 358 357 357
364 361 364 368 368 368 365 363 360 362 365 354 352 356 357 351 342 339 346 347 346 346 349 352 350 359 359 358 360 360 358 359 360 359 355 355 356 357 356 356 356 356 356
365 362 366 367 366 366 365 364 365 366 364 359 354 354 354 356 347 339 336 340 347 349 351 347 354 357 360 358 357 357 358 355 356 356 355 352 353 353 353 353 353 353 353
359 363 363 366 367 365 365 362 364 364 364 364 363 359 353 349 343 342 338 343 341 346 345 344 353 352 360 359 360 359 358 356 354 353 352 352 350 350 350 350 350 351 351
356 353 362 364 363 367 365 365 364 363 365 362 364 361 359 352 356 354 349 343 343 347 346 348 355 360 356 354 357 358 357 353 351 350 348 348 347 347 347 347 347 348 348
347 367 364 365 362 365 365 366 363 360 360 362 363 363 359 357 354 353 351 349 341 345 346 351 350 356 358 357 356 360 352 348 346 344 342 343 344 344 344 343 343 343 343
354 356 361 362 364 361 361 363 361 361 360 361 359 362 361 357 355 353 355 351 343 335 341 349 345 359 360 361 360 359 352 345 343 341 339 339 340 340 340 339 338 337 338
364 359 360 354 360 355 362 361 359 358 358 359 358 359 360 356 354 356 354 349 351 351 344 349 351 356 358 359 357 361 354 345 341 338 338 337 337 338 337 335 334 334 335
369 362 363 360 359 361 363 361 358 359 359 359 360 360 357 359 358 357 356 358 354 349 348 348 355 350 357 360 362 362 350 341 337 336 335 333 333 334 333 331 330 330 331
365 365 366 363 362 363 363 362 357 355 355 357 358 356 357 358 359 363 358 358 356 357 352 348 346 351 355 361 359 357 352 346 340 334 332 331 330 329 327 326 326 326 326
362 361 363 362 362 361 360 364 360 358 358 358 358 358 359 359 358 358 358 355 355 356 355 349 349 352 352 357 355 356 353 351 344 332 329 328 327 325 323 322 321 320 318
362 361 360 360 360 362 362 360 359 359 358 357 360 359 359 360 358 356 357 354 354 352 352 353 350 349 350 355 354 348 348 351 341 340 334 328 327 324 322 321 320 319 317
360 361 361 359 360 359 358 359 359 358 358 357 358 361 358 360 348 350 357 356 355 350 350 351 347 348 348 347 345 349 346 347 341 340 335 327 324 324 323 324 321 319 316
361 361 360 359 358 357 346 344 354 357 358 356 354 357 361 349 344 341 340 336 342 352 349 348 348 345 346 348 349 343 341 341 336 333 340 335 334 329 324 318 320 317 315
349 355 355 358 359 360 342 338 342 356 356 357 357 356 356 355 353 346 334 333 333 333 337 345 348 344 339 338 342 338 338 334 330 325 336 332 333 325 316 317 318 317 316
349 348 350 354 356 358 340 336 337 350 354 355 358 358 357 357 356 349 342 343 342 337 333 342 341 339 337 341 339 338 338 336 332 325 327 326 331 328 321 316 318 317 315
347 352 354 355 355 356 336 332 335 351 352 354 355 357 357 356 339 338 346 348 335 329 323 321 320 319 319 320 327 326 322 321 318 322 325 325 331 330 327 316 316 317 315
338 341 345 353 347 355 338 329 331 351 351 352 355 356 335 349 325 326 348 347 337 333 331 328 326 326 327 323 324 326 324 321 323 323 321 322 323 324 321 327 318 314 314
Wind_Speed
4 6 3 7 8 6 6 7 5 4 4 5 2 2 4 7 5 6 5 15 14 12 11 10 10 10 10 10 9 10 11 10 9 8 10 10 8 7 9 4 3 4 5
2 3 1 3 4 2 2 3 2 3 5 5 4 3 3 6 3 2 6 8 15 16 16 15 14 12 12 11 10 9 9 8 8 9 9 9 8 5 6 2 4 4 4
4 1 3 6 2 2 5 5 4 4 4 3 6 5 4 3 5 2 4 7 9 15 16 14 12 11 12 11 10 8 7 5 6 8 8 8 10 3 2 2 3 4 4
5 4 7 7 8 3 4 3 6 6 4 2 4 4 3 4 5 6 5 1 6 8 12 14 12 13 12 10 8 6 4 4 4 6 9 7 5 5 3 3 4 4 5
8 2 11 13 7 3 6 4 9 9 4 3 4 2 3 3 6 7 7 5 20 14 6 12 14 14 10 8 6 5 4 2 3 5 8 4 5 5 4 4 5 5 5
5 2 1 1 2 5 6 5 11 7 3 5 8 8 8 10 10 12 10 13 11 13 4 8 7 7 11 8 6 6 5 3 3 5 2 3 3 3 5 5 3 5 6
5 4 3 4 2 3 5 4 4 7 6 1 4 6 5 10 14 12 13 10 5 3 18 5 3 5 5 9 5 6 4 3 2 3 3 3 2 2 3 3 1 3 4
4 4 4 5 3 3 1 3 1 4 5 4 2 2 1 7 7 7 11 11 5 3 8 5 7 3 5 5 4 8 5 3 0 2 4 2 2 2 2 3 2 1 2
5 6 3 3 4 4 1 2 3 5 3 5 1 2 3 3 3 6 1 3 5 6 5 7 7 6 6 7 6 6 8 5 1 1 3 4 1 1 2 3 3 4 4
6 6 6 4 3 3 4 4 3 2 3 4 3 3 2 3 2 5 3 5 7 7 6 2 4 7 7 4 8 10 10 7 4 3 3 3 3 1 3 4 5 5 5
6 6 6 6 5 3 4 4 3 1 3 4 3 3 2 1 6 4 5 4 5 5 4 2 4 5 6 10 4 7 11 9 7 4 2 2 2 3 4 4 5 6 7
7 7 6 6 6 4 3 4 5 5 3 4 4 4 2 2 4 3 4 5 4 5 1 6 2 5 6 10 10 8 7 9 7 6 3 3 3 4 4 5 5 6 7
5 8 7 6 5 6 5 4 4 4 4 5 3 4 4 3 3 2 2 4 3 4 3 5 4 5 9 8 9 13 5 10 8 8 6 5 4 4 5 6 7 8 9
6 4 6 7 7 6 5 5 4 4 8 5 6 4 5 4 5 3 3 2 3 2 4 3 9 8 4 6 7 13 5 11 10 11 8 6 5 5 6 8 8 10 11
7 7 8 6 6 8 8 7 4 5 5 5 5 7 5 5 5 5 2 3 4 3 1 1 3 4 2 5 4 7 7 10 11 11 9 9 7 6 7 8 8 9 9
6 7 6 5 7 5 7 7 6 8 8 6 6 5 6 6 7 4 4 5 2 2 1 4 4 3 1 2 2 6 6 10 11 10 8 9 9 7 7 8 8 9 9
5 6 9 10 9 8 7 7 7 6 4 5 6 5 4 5 5 4 6 5 3 2 2 3 1 3 6 3 3 4 9 7 5 8 8 9 10 9 8 9 8 8 8
7 6 6 7 7 6 6 6 7 8 6 6 6 7 6 5 5 3 5 6 4 3 0 3 2 3 1 4 2 2 6 6 6 6 8 10 10 9 8 8 8 8 8
10 10 9 8 8 8 7 6 8 8 9 7 7 7 6 6 5 4 5 8 4 2 2 2 3 1 2 2 3 1 5 6 4 11 8 10 10 9 9 9 9 10 10
11 11 11 10 11 11 10 10 9 9 9 8 7 6 6 7 5 7 5 7 5 4 2 2 2 2 1 2 2 1 2 3 4 6 7 8 9 10 10 10 9 9 9
11 12 11 11 11 12 11 12 11 11 11 10 8 6 7 4 4 4 4 5 4 5 1 2 3 2 1 3 2 1 1 4 5 4 4 5 4 4 5 7 9 8 8
10 10 12 13 13 11 15 18 17 13 12 12 11 8 6 7 4 4 6 9 4 3 4 3 1 1 1 2 2 3 3 2 2 4 2 3 4 3 4 4 10 10 8
8 9 14 14 15 14 15 13 15 13 12 12 10 8 8 7 9 7 6 9 7 8 5 1 2 3 3 2 2 3 5 4 3 2 1 2 2 4 4 6 9 8 7
7 10 16 18 15 13 14 16 13 10 12 10 10 11 10 7 10 11 8 7 6 7 6 4 7 5 5 4 4 4 4 5 3 1 2 2 3 3 5 5 10 9 9
8 10 13 15 15 15 14 16 13 12 13 12 10 9 11 10 12 9 10 9 10 8 10 14 12 10 9 7 3 3 3 3 1 1 0 1 3 3 6 5 6 11 9
12 10 13 13 17 16 16 15 12 10 12 10 9 8 5 11 15 12 8 10 10 9 9 7 5 5 5 4 5 4 3 1 2 2 4 3 4 4 0 4 6 6 5
Wind_Direction
164 209 139 124 234 230 178 196 224 189 203 228 24 2 297 50 24 133 148 165 175 187 199 213 227 240 251 260 265 273 286 305 312 315 314 306 305 301 296 289 297 298 298
49 259 109 283 207 61 69 40 117 248 225 184 120 331 300 134 68 90 156 181 189 192 200 208 217 229 242 253 268 286 293 306 313 322 324 306 302 270 261 253 290 298 283
218 60 206 277 282 130 22 355 286 274 285 149 145 173 244 90 153 199 229 176 199 209 209 209 218 229 243 253 261 271 291 291 313 324 320 314 308 288 247 254 260 264 243
282 272 66 355 288 99 129 339 296 264 235 272 138 196 155 183 155 198 225 204 160 203 210 212 215 225 235 252 259 255 256 299 315 310 313 326 328 332 345 312 262 237 222
260 324 124 215 261 349 69 10 335 326 307 280 27 249 233 231 199 225 217 169 40 307 179 186 208 224 227 237 235 232 245 279 287 298 312 11 359 347 344 309 270 239 214
238 259 54 231 333 52 130 101 262 290 303 84 56 339 23 19 13 352 314 128 202 224 180 158 187 213 208 228 210 213 234 252 245 295 321 38 25 360 345 327 268 228 213
206 286 321 280 257 126 123 259 323 328 308 78 102 345 30 17 360 1 323 298 162 239 25 121 144 112 170 208 200 208 214 213 193 305 71 43 22 352 341 337 274 229 223
173 248 248 280 281 92 118 142 283 295 311 352 105 235 75 6 269 280 270 292 344 290 178 147 102 162 165 137 220 191 196 169 96 348 94 82 19 358 6 22 24 32 237
192 199 277 276 344 334 304 201 232 267 330 328 232 164 90 208 204 224 162 264 282 331 359 119 163 170 125 141 200 214 180 155 130 15 83 111 112 337 42 29 27 32 26
200 197 210 253 190 303 349 253 217 249 310 294 339 207 147 127 341 5 290 311 333 267 221 123 157 157 172 158 153 189 156 146 123 61 48 66 105 82 36 18 11 17 25
212 219 190 211 197 212 285 282 319 266 308 284 299 313 24 163 84 69 293 287 287 250 93 49 126 154 145 125 124 137 140 133 117 109 86 59 51 63 62 39 22 19 16
205 207 202 192 189 206 202 254 258 267 265 298 325 329 297 256 176 158 250 272 294 300 344 34 23 105 71 68 39 132 147 128 120 119 90 60 52 52 49 51 49 38 29
222 200 217 175 182 205 213 245 216 272 271 272 281 293 309 292 310 262 270 287 312 340 21 37 353 41 102 104 124 259 146 112 107 103 99 96 74 55 58 51 42 43 40
237 198 183 191 216 178 228 200 187 242 229 226 248 274 289 299 305 291 232 173 324 9 50 2 14 317 105 143 180 154 146 120 128 116 112 101 89 83 70 68 62 55 54
208 169 182 223 212 231 181 214 217 250 258 249 233 231 255 275 281 299 330 91 152 272 255 201 162 220 333 130 172 156 153 147 133 114 116 109 101 97 91 87 84 82 82
217 161 172 218 227 230 208 199 201 236 240 233 229 245 229 252 271 311 340 354 266 161 285 163 234 6 256 141 97 100 108 123 118 118 118 111 101 97 97 93 88 83 79
210 214 186 199 221 209 198 190 242 262 298 254 274 291 291 303 297 312 321 333 6 38 41 309 13 159 261 89 72 25 144 113 107 114 122 114 105 102 99 92 84 82 81
228 230 249 223 227 245 229 193 211 254 242 233 228 257 260 267 282 292 291 299 314 307 75 289 308 318 302 85 132 82 109 134 103 134 141 115 111 107 100 92 88 78 66
220 226 224 227 225 228 240 211 202 226 253 244 229 230 240 253 262 265 263 277 278 252 223 239 271 340 10 38 44 25 108 132 113 139 126 112 115 111 101 84 73 66 62
209 220 228 221 221 226 226 230 216 221 235 251 257 241 233 225 236 259 248 259 282 260 217 229 266 278 142 99 92 53 79 107 153 171 139 119 128 119 113 102 91 84 79
217 218 219 227 228 220 224 220 217 217 217 223 244 231 232 246 141 240 253 239 235 262 282 268 280 261 45 27 30 350 37 113 59 8 116 134 136 140 135 95 97 91 87
233 222 223 222 220 227 221 218 210 213 206 215 217 218 199 153 158 160 141 92 62 233 239 256 82 11 51 38 36 26 49 80 132 26 78 83 149 106 112 85 103 114 112
271 286 268 247 237 228 233 228 211 215 214 209 205 206 206 200 170 160 135 116 99 89 75 33 358 45 82 55 43 65 47 63 63 28 323 103 119 121 125 123 128 128 123
222 222 254 251 241 240 228 224 217 228 230 222 199 196 196 177 180 166 165 166 138 74 24 39 86 70 64 51 43 79 96 117 107 81 17 155 199 177 140 134 151 161 163
279 243 238 244 242 242 231 230 220 228 230 225 215 195 192 199 176 178 169 162 127 116 71 77 89 91 78 58 50 90 63 84 87 275 288 223 225 172 160 155 169 184 191
291 282 278 256 237 240 231 218 216 227 229 224 223 207 181 204 159 172 194 162 143 143 131 123 120 107 98 85 80 81 113 42 218 119 337 355 359 3 122 147 167 172 186